Torna al catalogo

CZ-4B DEB

AttivoSSO
NORAD 29536·DEBRIS·🇨🇳 China

Lanciato Apr 26, 2006 da Taiyuan Satellite Launch Center

Loading…

Prossimi Passaggi (prossime 24 ore)

TLE

AggiornatoSource: Space-Track

Epoca: Sep 14, 2026, 20:23 UTC

1 29536U 06015C   26257.84944823  .00016639  00000-0  14040-2 0  9997
2 29536  97.8802 217.9151 0080949  25.1512 335.3616 14.95656027 77324

Traccia CZ-4B DEB in tempo reale con AllMySat

Download on the App Store